Regional Weather Roundup
Issued by NWS Little Rock, AR

Home | Current Version | Previous Version | Graphics & Text | Print | Product List | Glossary On
Versions: 1 2 3 4 5 6 7 8 9 10 11 12 13 14 15 16 17 18 19 20 21 22 23 24 25 26 27 28 29 30 31 32 33 34 35 36 37 38 39 40 41 42 43 44 45 46 47 48 49 50
947
ASUS44 KLZK 241814
RWRLZK

WEATHER ROUNDUP FOR ARKANSAS
NATIONAL WEATHER SERVICE LITTLE ROCK AR
100 PM CDT SAT SEP 24 2016

NOTE: "FAIR" INDICATES FEW OR NO CLOUDS BELOW 12,000 FEET WITH NO
SIGNIFICANT WEATHER AND/OR OBSTRUCTIONS TO VISIBILITY.

ARZ001-003-010-029-241900-
NORTHWEST ARKANSAS

CITY           SKY/WX    TMP DP  RH WIND       PRES   REMARKS
FAYETTEVILLE   SUNNY     86  71  60 S8        30.09S HX  91
6HR MIN TEMP:  62; 6HR MAX TEMP:  86;

FORT SMITH     SUNNY     90  67  46 S10       30.04F HX  93
6HR MIN TEMP:  72; 6HR MAX TEMP:  90;

HARRISON       SUNNY     87  69  54 VRB6      30.11S HX  91
6HR MIN TEMP:  65; 6HR MAX TEMP:  87;

BENTONVILLE    MOSUNNY   88  66  48 S10       30.09F HX  90
6HR MIN TEMP:  70; 6HR MAX TEMP:  88;

ROGERS         MOSUNNY   87  70  56 SE12      30.09F HX  92
6HR MIN TEMP:  70; 6HR MAX TEMP:  87;

SILOAM SPGS    MOSUNNY   90  64  43 S13         N/A  HX  91
HIGHFILL       MOSUNNY   87  70  56 S13       30.07F HX  92
6HR MIN TEMP:  68; 6HR MAX TEMP:  88;

SPRINGDALE     MOSUNNY   86  70  58 S10G17    30.10F HX  90
$$

ARZ004-005-016-241900-
NORTH CENTRAL ARKANSAS

CITY           SKY/WX    TMP DP  RH WIND       PRES   REMARKS
BATESVILLE     SUNNY     91  70  49 S7        30.08S HX  97
6HR MIN TEMP:  66; 6HR MAX TEMP:  91;

FLIPPIN        MOSUNNY   88  68  51 E7        30.06F HX  91
6HR MIN TEMP:  64; 6HR MAX TEMP:  90;

MTN HOME       MOSUNNY   86  69  56 VRB7      30.09F HX  90
6HR MIN TEMP:  66; 6HR MAX TEMP:  87;

$$

ARZ040-041-241900-
WEST CENTRAL ARKANSAS

CITY           SKY/WX    TMP DP  RH WIND       PRES   REMARKS
MENA           SUNNY     88  72  58 SE5       30.09F HX  94
MOUNT IDA      SUNNY     87  68  52 VRB5      30.07F HX  90
6HR MIN TEMP:  68; 6HR MAX TEMP:  87;

$$

ARZ009-017-025-026-028-241900-
NORTHEAST ARKANSAS

CITY           SKY/WX    TMP DP  RH WIND       PRES   REMARKS
CORNING          N/A     90  72  55 SE6       30.08F HX  96
JONESBORO      SUNNY     92  66  42 S6        30.07F HX  94
6HR MIN TEMP:  69; 6HR MAX TEMP:  93;

NEWPORT        SUNNY     91  69  48 VRB5      30.07F HX  96
6HR MIN TEMP:  69; 6HR MAX TEMP:  91;

WALNUT RIDGE   SUNNY     91  66  43 CALM      30.07F HX  94
6HR MIN TEMP:  68; 6HR MAX TEMP:  91;

BLYTHEVILLE    MOSUNNY   94  65  38 S6        30.08F HX  96
6HR MIN TEMP:  70; 6HR MAX TEMP:  94;

$$

ARZ022-023-033-042-044-241900-
CENTRAL ARKANSAS

CITY           SKY/WX    TMP DP  RH WIND       PRES   REMARKS
LITTLE ROCK    MOSUNNY   92  69  47 SE9       30.07F HX  97
6HR MIN TEMP:  73; 6HR MAX TEMP:  93;

N LITTLE ROCK    N/A     90  71  52 S6        30.04F HX  96
6HR MIN TEMP:  72; 6HR MAX TEMP:  90;

JACKSONVILLE   SUNNY     92  71  51 SE7       30.06F HX  98
6HR MIN TEMP:  68; 6HR MAX TEMP:  92; 6HR PCP: TRACE;

SEARCY         SUNNY     91  71  51 S5        30.09F HX  97
6HR MIN TEMP:  68; 6HR MAX TEMP:  91;

HOT SPRINGS    SUNNY     89  69  51 S8        30.08F HX  93
6HR MIN TEMP:  70; 6HR MAX TEMP:  89;

RUSSELLVILLE   MOSUNNY   88  71  57 VRB7      30.06F HX  94
6HR MIN TEMP:  69; 6HR MAX TEMP:  89;

$$

ARZ036-241900-
EAST ARKANSAS

CITY           SKY/WX    TMP DP  RH WIND       PRES   REMARKS
WEST MEMPHIS   MOSUNNY   95  63  34 S10       30.05F HX  96
6HR MIN TEMP:  67; 6HR MAX TEMP:  95;

$$

ARZ050-053-066-070-073-241900-
SOUTHWEST ARKANSAS

CITY           SKY/WX    TMP DP  RH WIND       PRES   REMARKS
ARKADELPHIA    MOCLDY    88  74  63 VRB3      30.07F HX  96
6HR MIN TEMP:  67; 6HR MAX TEMP:  89;

TEXARKANA      MOSUNNY   90  69  50 S8        30.06F HX  94
6HR MIN TEMP:  72; 6HR MAX TEMP:  91;

EL DORADO      SUNNY     90  69  50 VRB5      30.07F HX  94
6HR MIN TEMP:  68; 6HR MAX TEMP:  90;

DE QUEEN       MOSUNNY   89  72  56 VRB6      30.04F HX  96
6HR MIN TEMP:  69; 6HR MAX TEMP:  89;

$$

ARZ056-057-069-241900-
SOUTHEAST ARKANSAS

CITY           SKY/WX    TMP DP  RH WIND       PRES   REMARKS
PINE BLUFF     MOSUNNY   90  69  50 VRB5      30.07F HX  94
6HR MIN TEMP:  69; 6HR MAX TEMP:  91; 6HR PCP: TRACE;

STUTTGART      MOSUNNY   93  66  40 CALM      30.07F HX  96
6HR MIN TEMP:  73; 6HR MAX TEMP:  93;

MONTICELLO     SUNNY     91  70  49 VRB6      30.07F HX  96
6HR MIN TEMP:  70; 6HR MAX TEMP:  92;


$$






USA.gov is the U.S. government's official web portal to all federal, state and local government web resources and services.